Time,TemperatureF,DewpointF,PressureIn,WindDirection,WindDirectionDegrees,WindSpeedMPH,WindSpeedGustMPH,Humidity,HourlyPrecipIn,Conditions,Clouds,dailyrainin,SoftwareType,DateUTC
2013-04-27 00:00:00,37.3,31.7,30.46,NE,41,0.0,0.0,80,0.00,,CLR,0.01,VWS V14.01,2013-04-27 04:00:00,
2013-04-27 00:01:00,37.3,31.7,30.46,NE,41,0.0,0.0,80,0.00,,CLR,0.01,VWS V14.01,2013-04-27 04:01:00,
2013-04-27 00:02:00,37.3,31.7,30.46,NE,41,0.0,0.0,80,0.00,,CLR,0.01,VWS V14.01,2013-04-27 04:02:00,
2013-04-27 00:07:00,37.0,31.7,30.46,NE,41,0.0,0.0,81,0.00,,CLR,0.00,VWS V14.01,2013-04-27 04:07:00,
2013-04-27 00:12:00,36.7,31.4,30.46,NE,41,0.0,0.0,81,0.00,,CLR,0.00,VWS V14.01,2013-04-27 04:12:00,
2013-04-27 00:18:00,36.4,31.4,30.46,NE,40,0.0,0.0,82,0.00,,CLR,0.00,VWS V14.01,2013-04-27 04:18:00,
2013-04-27 00:23:00,36.0,31.6,30.46,NE,41,0.0,0.0,84,0.00,,CLR,0.00,VWS V14.01,2013-04-27 04:23:00,
2013-04-27 00:28:00,36.0,31.9,30.46,NE,40,0.0,0.0,85,0.00,,CLR,0.00,VWS V14.01,2013-04-27 04:28:00,
2013-04-27 00:30:00,36.5,31.8,30.46,NE,40,0.0,0.0,83,0.00,,CLR,0.00,VWS V14.01,2013-04-27 04:30:00,
2013-04-27 00:33:00,36.5,31.8,30.46,NE,40,0.0,0.0,83,0.00,,CLR,0.00,VWS V14.01,2013-04-27 04:33:00,
2013-04-27 00:38:00,37.0,31.7,30.46,NE,40,0.0,0.0,81,0.00,,CLR,0.00,VWS V14.01,2013-04-27 04:38:00,
2013-04-27 00:43:00,36.8,31.5,30.47,NE,40,0.0,0.0,81,0.00,,CLR,0.00,VWS V14.01,2013-04-27 04:43:00,
2013-04-27 00:48:00,36.2,31.5,30.46,NE,40,0.0,0.0,83,0.00,,CLR,0.00,VWS V14.01,2013-04-27 04:48:00,
2013-04-27 00:53:00,35.8,31.5,30.46,NE,41,0.0,0.0,84,0.00,,CLR,0.00,VWS V14.01,2013-04-27 04:53:00,
2013-04-27 00:58:00,35.6,31.2,30.46,NE,40,0.0,0.0,84,0.00,,CLR,0.00,VWS V14.01,2013-04-27 04:58:00,
2013-04-27 01:00:00,35.3,31.2,30.46,NE,41,0.0,0.0,85,0.00,,CLR,0.00,VWS V14.01,2013-04-27 05:00:00,
2013-04-27 01:03:00,35.3,31.2,30.46,NE,40,0.0,0.0,85,0.00,,CLR,0.00,VWS V14.01,2013-04-27 05:03:00,
2013-04-27 01:09:00,34.9,30.9,30.46,NE,39,0.0,0.0,85,0.00,,CLR,0.00,VWS V14.01,2013-04-27 05:09:00,
2013-04-27 01:14:00,34.6,30.9,30.46,NE,41,0.0,0.0,86,0.00,,CLR,0.00,VWS V14.01,2013-04-27 05:14:00,
2013-04-27 01:19:00,34.4,30.6,30.46,NE,40,0.0,0.0,86,0.00,,CLR,0.00,VWS V14.01,2013-04-27 05:19:00,
2013-04-27 01:24:00,34.4,30.9,30.46,NE,41,0.0,0.0,87,0.00,,CLR,0.00,VWS V14.01,2013-04-27 05:24:00,
2013-04-27 01:29:00,34.2,30.7,30.46,NE,40,0.0,0.0,87,0.00,,CLR,0.00,VWS V14.01,2013-04-27 05:29:00,
2013-04-27 01:30:00,34.0,30.5,30.46,NE,41,0.0,0.0,87,0.00,,CLR,0.00,VWS V14.01,2013-04-27 05:30:00,
2013-04-27 01:34:00,33.9,30.7,30.46,NE,41,0.0,0.0,88,0.00,,CLR,0.00,VWS V14.01,2013-04-27 05:34:00,
2013-04-27 01:39:00,34.0,31.1,30.46,NE,41,0.0,0.0,89,0.00,,CLR,0.00,VWS V14.01,2013-04-27 05:39:00,
2013-04-27 01:44:00,34.3,31.4,30.46,NE,40,0.0,0.0,89,0.00,,CLR,0.00,VWS V14.01,2013-04-27 05:44:00,
2013-04-27 01:50:00,34.7,31.5,30.46,NE,41,0.0,0.0,88,0.00,,CLR,0.00,VWS V14.01,2013-04-27 05:50:00,
2013-04-27 01:55:00,34.6,31.1,30.45,NE,40,0.0,0.0,87,0.00,,CLR,0.00,VWS V14.01,2013-04-27 05:55:00,
2013-04-27 02:00:00,34.3,30.8,30.45,NE,41,0.0,0.0,87,0.00,,CLR,0.00,VWS V14.01,2013-04-27 06:00:00,
2013-04-27 02:05:00,34.0,30.5,30.45,NE,40,0.0,0.0,87,0.00,,CLR,0.00,VWS V14.01,2013-04-27 06:05:00,
2013-04-27 02:10:00,33.8,30.6,30.45,NE,41,0.0,0.0,88,0.00,,CLR,0.00,VWS V14.01,2013-04-27 06:10:00,
2013-04-27 02:15:00,33.8,30.6,30.45,NE,41,0.0,0.0,88,0.00,,CLR,0.00,VWS V14.01,2013-04-27 06:15:00,
2013-04-27 02:20:00,33.6,30.4,30.45,NE,41,0.0,0.0,88,0.00,,CLR,0.00,VWS V14.01,2013-04-27 06:20:00,
2013-04-27 02:25:00,33.3,30.1,30.45,NE,40,0.0,0.0,88,0.00,,CLR,0.00,VWS V14.01,2013-04-27 06:25:00,
2013-04-27 02:30:00,33.0,29.8,30.45,NE,41,0.0,0.0,88,0.00,,CLR,0.00,VWS V14.01,2013-04-27 06:30:00,
2013-04-27 02:35:00,32.9,29.7,30.44,NE,41,0.0,0.0,88,0.00,,CLR,0.00,VWS V14.01,2013-04-27 06:35:00,
2013-04-27 02:40:00,32.8,29.9,30.45,NE,40,0.0,0.0,89,0.00,,CLR,0.00,VWS V14.01,2013-04-27 06:40:00,
2013-04-27 02:46:00,32.7,29.8,30.45,NE,40,0.0,0.0,89,0.00,,CLR,0.00,VWS V14.01,2013-04-27 06:46:00,
2013-04-27 02:51:00,32.7,30.1,30.45,NE,41,0.0,0.0,90,0.00,,CLR,0.00,VWS V14.01,2013-04-27 06:51:00,
2013-04-27 02:56:00,33.0,30.7,30.45,NE,40,0.0,0.0,91,0.00,,CLR,0.00,VWS V14.01,2013-04-27 06:56:00,
2013-04-27 03:00:00,33.2,30.6,30.45,NE,39,0.0,0.0,90,0.00,,CLR,0.00,VWS V14.01,2013-04-27 07:00:00,
2013-04-27 03:01:00,33.2,30.9,30.45,NE,40,0.0,0.0,91,0.00,,CLR,0.00,VWS V14.01,2013-04-27 07:01:00,
2013-04-27 03:06:00,33.4,31.1,30.45,WSW,256,0.0,1.0,91,0.00,,CLR,0.00,VWS V14.01,2013-04-27 07:06:00,
2013-04-27 03:11:00,34.1,31.5,30.44,WSW,252,0.0,1.0,90,0.00,,CLR,0.00,VWS V14.01,2013-04-27 07:11:00,
2013-04-27 03:16:00,34.3,31.4,30.44,WSW,252,0.0,1.0,89,0.00,,CLR,0.00,VWS V14.01,2013-04-27 07:16:00,
2013-04-27 03:21:00,34.2,31.0,30.44,WSW,252,0.0,1.0,88,0.00,,CLR,0.00,VWS V14.01,2013-04-27 07:21:00,
2013-04-27 03:26:00,34.2,31.3,30.44,WSW,251,0.0,1.0,89,0.00,,CLR,0.00,VWS V14.01,2013-04-27 07:26:00,
2013-04-27 03:30:00,34.0,30.8,30.44,WSW,252,0.0,1.0,88,0.00,,CLR,0.00,VWS V14.01,2013-04-27 07:30:00,
2013-04-27 03:32:00,34.0,30.8,30.44,WSW,251,0.0,1.0,88,0.00,,CLR,0.00,VWS V14.01,2013-04-27 07:32:00,
2013-04-27 03:37:00,33.7,30.5,30.44,WSW,251,0.0,0.0,88,0.00,,CLR,0.00,VWS V14.01,2013-04-27 07:37:00,
2013-04-27 03:42:00,33.3,30.1,30.44,WSW,252,0.0,0.0,88,0.00,,CLR,0.00,VWS V14.01,2013-04-27 07:42:00,
2013-04-27 03:47:00,33.2,30.3,30.44,WSW,252,0.0,0.0,89,0.00,,CLR,0.00,VWS V14.01,2013-04-27 07:47:00,
2013-04-27 03:52:00,33.1,30.5,30.44,WSW,252,0.0,0.0,90,0.00,,CLR,0.00,VWS V14.01,2013-04-27 07:52:00,
2013-04-27 03:57:00,33.1,30.5,30.44,WSW,252,0.0,0.0,90,0.00,,CLR,0.00,VWS V14.01,2013-04-27 07:57:00,
2013-04-27 04:00:00,33.1,30.5,30.45,WSW,251,0.0,0.0,90,0.00,,CLR,0.00,VWS V14.01,2013-04-27 08:00:00,
2013-04-27 04:02:00,33.1,30.5,30.45,WSW,252,0.0,0.0,90,0.00,,CLR,0.00,VWS V14.01,2013-04-27 08:02:00,
2013-04-27 04:07:00,32.9,30.3,30.44,WSW,251,0.0,0.0,90,0.00,,CLR,0.00,VWS V14.01,2013-04-27 08:07:00,
2013-04-27 04:12:00,32.7,30.1,30.44,WSW,252,0.0,0.0,90,0.00,,CLR,0.00,VWS V14.01,2013-04-27 08:12:00,
2013-04-27 04:17:00,32.5,29.9,30.44,WSW,251,0.0,0.0,90,0.00,,CLR,0.00,VWS V14.01,2013-04-27 08:17:00,
2013-04-27 04:23:00,32.3,29.7,30.44,WSW,251,0.0,0.0,90,0.00,,CLR,0.00,VWS V14.01,2013-04-27 08:23:00,
2013-04-27 04:28:00,32.1,29.8,30.44,WSW,252,0.0,0.0,91,0.00,,CLR,0.00,VWS V14.01,2013-04-27 08:28:00,
2013-04-27 04:30:00,32.1,29.8,30.43,WSW,252,0.0,0.0,91,0.00,,CLR,0.00,VWS V14.01,2013-04-27 08:30:00,
2013-04-27 04:33:00,32.1,29.8,30.43,WSW,252,0.0,0.0,91,0.00,,CLR,0.00,VWS V14.01,2013-04-27 08:33:00,
2013-04-27 04:38:00,32.1,29.8,30.43,WSW,252,0.0,0.0,91,0.00,,CLR,0.00,VWS V14.01,2013-04-27 08:38:00,
2013-04-27 04:43:00,32.1,29.8,30.43,WSW,252,0.0,0.0,91,0.00,,CLR,0.00,VWS V14.01,2013-04-27 08:43:00,
2013-04-27 04:48:00,32.0,29.9,30.43,WSW,252,0.0,0.0,92,0.00,,CLR,0.00,VWS V14.01,2013-04-27 08:48:00,
2013-04-27 04:53:00,32.0,29.9,30.43,WSW,252,0.0,0.0,92,0.00,,CLR,0.00,VWS V14.01,2013-04-27 08:53:00,
2013-04-27 04:58:00,31.9,29.8,30.43,WSW,252,0.0,0.0,92,0.00,,CLR,0.00,VWS V14.01,2013-04-27 08:58:00,
2013-04-27 05:00:00,31.9,29.8,30.43,WSW,252,0.0,0.0,92,0.00,,CLR,0.00,VWS V14.01,2013-04-27 09:00:00,
2013-04-27 05:03:00,31.9,29.8,30.43,WSW,252,0.0,0.0,92,0.00,,CLR,0.00,VWS V14.01,2013-04-27 09:03:00,
2013-04-27 05:09:00,31.9,29.8,30.43,WSW,252,0.0,0.0,92,0.00,,CLR,0.00,VWS V14.01,2013-04-27 09:09:00,
2013-04-27 05:14:00,32.1,30.0,30.43,WSW,252,0.0,0.0,92,0.00,,CLR,0.00,VWS V14.01,2013-04-27 09:14:00,
2013-04-27 05:19:00,32.1,30.0,30.43,WSW,252,0.0,0.0,92,0.00,,CLR,0.00,VWS V14.01,2013-04-27 09:19:00,
2013-04-27 05:24:00,32.1,30.0,30.43,WSW,251,0.0,0.0,92,0.00,,CLR,0.00,VWS V14.01,2013-04-27 09:24:00,
2013-04-27 05:29:00,32.1,30.0,30.43,WSW,251,0.0,0.0,92,0.00,,CLR,0.00,VWS V14.01,2013-04-27 09:29:00,
2013-04-27 05:30:00,32.1,30.0,30.43,WSW,252,0.0,0.0,92,0.00,,CLR,0.00,VWS V14.01,2013-04-27 09:30:00,
2013-04-27 05:34:00,32.1,30.0,30.43,WSW,252,0.0,0.0,92,0.00,,CLR,0.00,VWS V14.01,2013-04-27 09:34:00,
2013-04-27 05:39:00,32.2,30.1,30.43,WSW,252,0.0,0.0,92,0.00,,CLR,0.00,VWS V14.01,2013-04-27 09:39:00,
2013-04-27 05:44:00,32.4,30.3,30.43,WSW,252,0.0,0.0,92,0.00,,CLR,0.00,VWS V14.01,2013-04-27 09:44:00,
2013-04-27 05:49:00,33.0,30.9,30.43,WSW,258,0.0,0.0,92,0.00,,CLR,0.00,VWS V14.01,2013-04-27 09:49:00,
2013-04-27 05:55:00,33.5,31.2,30.43,WSW,258,0.0,0.0,91,0.00,,CLR,0.00,VWS V14.01,2013-04-27 09:55:00,
2013-04-27 06:00:00,33.7,31.1,30.42,West,259,0.0,0.0,90,0.00,,CLR,0.00,VWS V14.01,2013-04-27 10:00:00,
2013-04-27 06:05:00,33.8,30.9,30.42,West,259,0.0,0.0,89,0.00,,CLR,0.00,VWS V14.01,2013-04-27 10:05:00,
2013-04-27 06:10:00,33.8,30.6,30.42,West,259,0.0,0.0,88,0.00,,CLR,0.00,VWS V14.01,2013-04-27 10:10:00,
2013-04-27 06:15:00,33.5,30.0,30.42,WSW,258,0.0,0.0,87,0.00,,CLR,0.00,VWS V14.01,2013-04-27 10:15:00,
2013-04-27 06:20:00,33.0,29.6,30.42,West,259,0.0,0.0,87,0.00,,CLR,0.00,VWS V14.01,2013-04-27 10:20:00,
2013-04-27 06:25:00,32.9,29.7,30.42,WSW,258,0.0,0.0,88,0.00,,CLR,0.00,VWS V14.01,2013-04-27 10:25:00,
2013-04-27 06:30:00,33.2,30.3,30.42,West,259,0.0,0.0,89,0.00,,CLR,0.00,VWS V14.01,2013-04-27 10:30:00,
2013-04-27 06:35:00,33.8,30.9,30.42,West,259,0.0,0.0,89,0.00,,CLR,0.00,VWS V14.01,2013-04-27 10:35:00,
2013-04-27 06:40:00,34.4,31.2,30.42,WNW,283,0.0,0.0,88,0.00,,CLR,0.00,VWS V14.01,2013-04-27 10:40:00,
2013-04-27 06:46:00,35.0,31.5,30.42,WNW,284,0.0,0.0,87,0.00,,CLR,0.00,VWS V14.01,2013-04-27 10:46:00,
2013-04-27 06:51:00,35.6,31.8,30.42,WNW,283,0.0,0.0,86,0.00,,CLR,0.00,VWS V14.01,2013-04-27 10:51:00,
2013-04-27 06:56:00,36.3,32.2,30.42,WNW,284,0.0,0.0,85,0.00,,CLR,0.00,VWS V14.01,2013-04-27 10:56:00,
2013-04-27 07:00:00,37.4,33.0,30.43,WNW,284,0.0,0.0,84,0.00,,CLR,0.00,VWS V14.01,2013-04-27 11:00:00,
2013-04-27 07:01:00,37.1,32.7,30.43,WNW,284,0.0,0.0,84,0.00,,CLR,0.00,VWS V14.01,2013-04-27 11:01:00,
2013-04-27 07:06:00,37.9,33.5,30.43,WNW,282,0.0,0.0,84,0.00,,CLR,0.00,VWS V14.01,2013-04-27 11:06:00,
2013-04-27 07:11:00,38.9,34.5,30.43,WNW,282,0.0,0.0,84,0.00,,CLR,0.00,VWS V14.01,2013-04-27 11:11:00,
2013-04-27 07:16:00,39.8,35.1,30.43,WNW,283,0.0,0.0,83,0.00,,CLR,0.00,VWS V14.01,2013-04-27 11:16:00,
2013-04-27 07:21:00,41.0,35.3,30.43,WNW,282,0.0,0.0,80,0.00,,CLR,0.00,VWS V14.01,2013-04-27 11:21:00,
2013-04-27 07:26:00,41.1,35.1,30.43,WNW,283,0.0,0.0,79,0.00,,CLR,0.00,VWS V14.01,2013-04-27 11:26:00,
2013-04-27 07:30:00,41.6,35.9,30.43,WNW,282,0.0,0.0,80,0.00,,CLR,0.00,VWS V14.01,2013-04-27 11:30:00,
2013-04-27 07:31:00,41.5,35.5,30.43,WNW,283,0.0,0.0,79,0.00,,CLR,0.00,VWS V14.01,2013-04-27 11:31:00,
2013-04-27 07:37:00,41.7,35.7,30.43,WNW,282,0.0,0.0,79,0.00,,CLR,0.00,VWS V14.01,2013-04-27 11:37:00,
2013-04-27 07:42:00,41.1,34.8,30.43,WSW,252,0.0,0.0,78,0.00,,CLR,0.00,VWS V14.01,2013-04-27 11:42:00,
2013-04-27 07:47:00,40.8,34.5,30.43,WSW,252,0.0,0.0,78,0.00,,CLR,0.00,VWS V14.01,2013-04-27 11:47:00,
2013-04-27 07:52:00,40.7,35.0,30.43,WSW,244,0.0,0.0,80,0.00,,CLR,0.00,VWS V14.01,2013-04-27 11:52:00,
2013-04-27 07:57:00,41.0,35.6,30.43,WSW,257,0.0,0.0,81,0.00,,CLR,0.00,VWS V14.01,2013-04-27 11:57:00,
2013-04-27 08:00:00,41.8,35.5,30.43,WSW,242,1.0,1.0,78,0.00,,CLR,0.00,VWS V14.01,2013-04-27 12:00:00,
2013-04-27 08:02:00,41.7,35.4,30.43,WSW,245,1.0,1.0,78,0.00,,CLR,0.00,VWS V14.01,2013-04-27 12:02:00,
2013-04-27 08:07:00,42.4,36.0,30.43,West,262,0.0,2.0,78,0.00,,CLR,0.00,VWS V14.01,2013-04-27 12:07:00,
2013-04-27 08:12:00,42.8,36.1,30.43,WSW,242,2.0,3.0,77,0.00,,CLR,0.00,VWS V14.01,2013-04-27 12:12:00,
2013-04-27 08:17:00,43.3,35.9,30.43,West,259,1.0,3.0,75,0.00,,CLR,0.00,VWS V14.01,2013-04-27 12:17:00,
2013-04-27 08:22:00,43.9,36.8,30.43,WSW,241,3.0,3.0,76,0.00,,CLR,0.00,VWS V14.01,2013-04-27 12:22:00,
2013-04-27 08:28:00,44.3,36.2,30.43,WSW,244,2.0,3.0,73,0.00,,CLR,0.00,VWS V14.01,2013-04-27 12:28:00,
2013-04-27 08:30:00,45.0,37.2,30.43,West,264,1.0,3.0,74,0.00,,CLR,0.00,VWS V14.01,2013-04-27 12:30:00,
2013-04-27 08:33:00,45.0,36.9,30.43,WSW,257,1.0,1.0,73,0.00,,FEW085,0.00,VWS V14.01,2013-04-27 12:33:00,
2013-04-27 08:38:00,45.9,37.0,30.43,WSW,253,1.0,2.0,71,0.00,,FEW085,0.00,VWS V14.01,2013-04-27 12:38:00,
2013-04-27 08:43:00,46.8,37.9,30.43,West,259,1.0,2.0,71,0.00,,FEW085,0.00,VWS V14.01,2013-04-27 12:43:00,
2013-04-27 08:48:00,47.7,38.0,30.43,WSW,256,1.0,2.0,69,0.00,,FEW085,0.00,VWS V14.01,2013-04-27 12:48:00,
2013-04-27 08:53:00,48.5,37.7,30.43,WSW,245,2.0,3.0,66,0.00,,FEW085,0.00,VWS V14.01,2013-04-27 12:53:00,
2013-04-27 08:58:00,49.1,37.5,30.42,WSW,250,2.0,3.0,64,0.00,,FEW085,0.00,VWS V14.01,2013-04-27 12:58:00,
2013-04-27 09:00:00,49.6,36.7,30.42,SW,224,2.0,3.0,61,0.00,,CLR,0.00,VWS V14.01,2013-04-27 13:00:00,
2013-04-27 09:03:00,49.7,36.0,30.42,WSW,242,2.0,4.0,59,0.00,,FEW085,0.00,VWS V14.01,2013-04-27 13:03:00,
2013-04-27 09:09:00,50.4,36.6,30.42,SW,232,1.0,4.0,59,0.00,,FEW085,0.00,VWS V14.01,2013-04-27 13:09:00,
2013-04-27 09:14:00,51.2,36.5,30.42,SW,224,1.0,4.0,57,0.00,,FEW085,0.00,VWS V14.01,2013-04-27 13:14:00,
2013-04-27 09:30:00,54.1,35.9,30.42,WSW,245,3.0,3.0,50,0.00,,FEW085,0.00,VWS V14.01,2013-04-27 13:30:00,
2013-04-27 09:35:00,54.6,35.3,30.42,West,262,3.0,4.0,48,0.00,,CLR,0.00,VWS V14.01,2013-04-27 13:35:00,
2013-04-27 09:40:00,55.1,34.7,30.42,WSW,253,2.0,5.0,46,0.00,,CLR,0.00,VWS V14.01,2013-04-27 13:40:00,
2013-04-27 09:48:00,56.1,33.9,30.41,SW,234,2.0,5.0,43,0.00,,CLR,0.00,VWS V14.01,2013-04-27 13:48:00,
2013-04-27 09:53:00,56.8,35.1,30.41,WSW,250,2.0,5.0,44,0.00,,CLR,0.00,VWS V14.01,2013-04-27 13:53:00,
2013-04-27 09:58:00,57.5,34.0,30.41,SW,229,3.0,5.0,41,0.00,,CLR,0.00,VWS V14.01,2013-04-27 13:58:00,
2013-04-27 10:00:00,57.8,33.0,30.41,SW,216,2.0,5.0,39,0.00,,CLR,0.00,VWS V14.01,2013-04-27 14:00:00,
2013-04-27 10:03:00,57.9,33.1,30.41,SW,226,4.0,4.0,39,0.00,,CLR,0.00,VWS V14.01,2013-04-27 14:03:00,
2013-04-27 10:09:00,58.7,33.8,30.40,SW,215,1.0,5.0,39,0.00,,CLR,0.00,VWS V14.01,2013-04-27 14:09:00,
2013-04-27 10:14:00,59.0,32.8,30.40,WSW,255,3.0,5.0,37,0.00,,CLR,0.00,VWS V14.01,2013-04-27 14:14:00,
2013-04-27 10:19:00,59.1,36.7,30.40,WSW,250,1.0,5.0,43,0.00,,CLR,0.00,VWS V14.01,2013-04-27 14:19:00,
2013-04-27 10:24:00,59.5,34.5,30.41,West,274,0.0,5.0,39,0.00,,CLR,0.00,VWS V14.01,2013-04-27 14:24:00,
2013-04-27 10:29:00,59.7,35.4,30.41,WNW,283,1.0,5.0,40,0.00,,CLR,0.00,VWS V14.01,2013-04-27 14:29:00,
2013-04-27 10:30:00,59.9,36.2,30.41,WSW,243,1.0,5.0,41,0.00,,CLR,0.00,VWS V14.01,2013-04-27 14:30:00,
2013-04-27 10:34:00,60.1,35.1,30.41,SW,232,2.0,2.0,39,0.00,,CLR,0.00,VWS V14.01,2013-04-27 14:34:00,
2013-04-27 10:39:00,59.9,32.9,30.40,SW,225,2.0,5.0,36,0.00,,CLR,0.00,VWS V14.01,2013-04-27 14:39:00,
2013-04-27 10:44:00,59.9,33.6,30.40,ESE,122,1.0,5.0,37,0.00,,CLR,0.00,VWS V14.01,2013-04-27 14:44:00,
2013-04-27 10:49:00,60.4,33.3,30.41,WSW,250,1.0,5.0,36,0.00,,CLR,0.00,VWS V14.01,2013-04-27 14:49:00,
2013-04-27 10:54:00,60.7,32.9,30.40,NW,322,3.0,5.0,35,0.00,,CLR,0.00,VWS V14.01,2013-04-27 14:54:00,
2013-04-27 11:00:00,60.9,36.4,30.40,WSW,254,2.0,5.0,40,0.00,,CLR,0.00,VWS V14.01,2013-04-27 15:00:00,
2013-04-27 11:05:00,61.5,33.6,30.40,WSW,250,0.0,2.0,35,0.00,,CLR,0.00,VWS V14.01,2013-04-27 15:05:00,
2013-04-27 11:10:00,61.9,33.2,30.40,WSW,239,1.0,3.0,34,0.00,,CLR,0.00,VWS V14.01,2013-04-27 15:10:00,
2013-04-27 11:15:00,61.8,33.9,30.40,NNW,333,0.0,4.0,35,0.00,,CLR,0.00,VWS V14.01,2013-04-27 15:15:00,
2013-04-27 11:20:00,62.1,33.4,30.40,NNE,16,2.0,7.0,34,0.00,,CLR,0.00,VWS V14.01,2013-04-27 15:20:00,
2013-04-27 11:25:00,62.1,32.7,30.41,ENE,58,2.0,7.0,33,0.00,,CLR,0.00,VWS V14.01,2013-04-27 15:25:00,
2013-04-27 11:30:00,62.0,34.1,30.40,NNE,27,5.0,7.0,35,0.00,,CLR,0.00,VWS V14.01,2013-04-27 15:30:00,
2013-04-27 11:35:00,62.2,34.2,30.40,SE,132,0.0,3.0,35,0.00,,CLR,0.00,VWS V14.01,2013-04-27 15:35:00,
2013-04-27 11:40:00,63.1,36.4,30.40,NW,304,1.0,6.0,37,0.00,,CLR,0.00,VWS V14.01,2013-04-27 15:40:00,
2013-04-27 11:45:00,63.0,33.5,30.41,NW,319,1.0,6.0,33,0.00,,CLR,0.00,VWS V14.01,2013-04-27 15:45:00,
2013-04-27 11:51:00,62.7,33.2,30.40,SSW,210,1.0,6.0,33,0.00,,CLR,0.00,VWS V14.01,2013-04-27 15:51:00,
2013-04-27 11:56:00,63.2,34.4,30.40,SW,218,2.0,6.0,34,0.00,,CLR,0.00,VWS V14.01,2013-04-27 15:56:00,
2013-04-27 12:00:00,63.5,35.4,30.40,NW,319,3.0,10.0,35,0.00,,CLR,0.00,VWS V14.01,2013-04-27 16:00:00,
2013-04-27 12:01:00,63.3,37.3,30.40,NE,53,1.0,10.0,38,0.00,,CLR,0.00,VWS V14.01,2013-04-27 16:01:00,
2013-04-27 12:06:00,63.4,33.0,30.40,NW,308,0.0,4.0,32,0.00,,CLR,0.00,VWS V14.01,2013-04-27 16:06:00,
2013-04-27 12:11:00,63.5,34.7,30.40,NW,319,0.0,4.0,34,0.00,,CLR,0.00,VWS V14.01,2013-04-27 16:11:00,
2013-04-27 12:16:00,63.6,33.2,30.39,NNE,17,3.0,4.0,32,0.00,,CLR,0.00,VWS V14.01,2013-04-27 16:16:00,
2013-04-27 12:21:00,63.7,34.8,30.39,NNW,346,2.0,5.0,34,0.00,,CLR,0.00,VWS V14.01,2013-04-27 16:21:00,
2013-04-27 12:26:00,63.9,31.9,30.39,NE,41,4.0,5.0,30,0.00,,CLR,0.00,VWS V14.01,2013-04-27 16:26:00,
2013-04-27 12:30:00,63.7,32.5,30.38,NE,39,1.0,7.0,31,0.00,,CLR,0.00,VWS V14.01,2013-04-27 16:30:00,
2013-04-27 12:31:00,63.8,35.7,30.39,NW,322,2.0,7.0,35,0.00,,CLR,0.00,VWS V14.01,2013-04-27 16:31:00,
2013-04-27 12:36:00,63.8,31.8,30.38,NNE,20,3.0,6.0,30,0.00,,CLR,0.00,VWS V14.01,2013-04-27 16:36:00,
2013-04-27 12:42:00,64.1,35.2,30.38,ENE,66,1.0,6.0,34,0.00,,CLR,0.00,VWS V14.01,2013-04-27 16:42:00,
2013-04-27 12:47:00,64.4,33.1,30.38,NNW,328,0.0,6.0,31,0.00,,CLR,0.00,VWS V14.01,2013-04-27 16:47:00,
2013-04-27 12:52:00,64.7,33.4,30.38,East,86,1.0,6.0,31,0.00,,CLR,0.00,VWS V14.01,2013-04-27 16:52:00,
2013-04-27 13:05:00,65.6,38.0,30.37,East,94,2.0,3.0,36,0.00,,CLR,0.00,VWS V14.01,2013-04-27 17:05:00,
2013-04-27 13:10:00,65.7,35.1,30.36,East,101,3.0,4.0,32,0.00,,CLR,0.00,VWS V14.01,2013-04-27 17:10:00,
2013-04-27 13:15:00,65.8,33.5,30.36,SSE,158,1.0,4.0,30,0.00,,CLR,0.00,VWS V14.01,2013-04-27 17:15:00,
2013-04-27 13:20:00,65.5,34.9,30.36,SE,141,1.0,4.0,32,0.00,,CLR,0.00,VWS V14.01,2013-04-27 17:20:00,
2013-04-27 13:26:00,65.8,35.9,30.36,ENE,64,3.0,4.0,33,0.00,,CLR,0.00,VWS V14.01,2013-04-27 17:26:00,
2013-04-27 13:31:00,66.0,35.3,30.36,NNE,32,8.0,8.0,32,0.00,,CLR,0.00,VWS V14.01,2013-04-27 17:31:00,
2013-04-27 13:36:00,65.9,33.6,30.36,NNE,18,1.0,6.0,30,0.00,,CLR,0.00,VWS V14.01,2013-04-27 17:36:00,
2013-04-27 13:41:00,65.6,38.0,30.35,NNE,18,2.0,6.0,36,0.00,,CLR,0.00,VWS V14.01,2013-04-27 17:41:00,
2013-04-27 13:46:00,65.2,33.0,30.35,NE,53,2.0,6.0,30,0.00,,CLR,0.00,VWS V14.01,2013-04-27 17:46:00,
2013-04-27 13:51:00,65.2,35.4,30.35,NW,307,3.0,6.0,33,0.00,,CLR,0.00,VWS V14.01,2013-04-27 17:51:00,
2013-04-27 13:56:00,65.3,34.7,30.35,ENE,60,2.0,7.0,32,0.00,,CLR,0.00,VWS V14.01,2013-04-27 17:56:00,
2013-04-27 14:02:00,65.3,37.0,30.35,North,352,3.0,7.0,35,0.00,,CLR,0.00,VWS V14.01,2013-04-27 18:02:00,
2013-04-27 14:07:00,65.7,38.0,30.35,NNW,338,3.0,3.0,36,0.00,,CLR,0.00,VWS V14.01,2013-04-27 18:07:00,
2013-04-27 14:12:00,65.8,36.7,30.35,NNE,23,2.0,4.0,34,0.00,,CLR,0.00,VWS V14.01,2013-04-27 18:12:00,
2013-04-27 14:17:00,66.1,39.1,30.34,NW,324,2.0,4.0,37,0.00,,CLR,0.00,VWS V14.01,2013-04-27 18:17:00,
2013-04-27 14:22:00,66.0,34.5,30.34,NE,46,2.0,5.0,31,0.00,,CLR,0.00,VWS V14.01,2013-04-27 18:22:00,
2013-04-27 14:27:00,65.6,35.8,30.34,East,94,4.0,5.0,33,0.00,,CLR,0.00,VWS V14.01,2013-04-27 18:27:00,
2013-04-27 14:32:00,65.9,36.8,30.34,WNW,302,2.0,5.0,34,0.00,,CLR,0.00,VWS V14.01,2013-04-27 18:32:00,
2013-04-27 14:37:00,66.0,36.8,30.34,WSW,250,0.0,5.0,34,0.00,,CLR,0.00,VWS V14.01,2013-04-27 18:37:00,
2013-04-27 14:42:00,66.3,38.6,30.33,North,6,3.0,5.0,36,0.00,,CLR,0.00,VWS V14.01,2013-04-27 18:42:00,
2013-04-27 14:48:00,66.1,36.2,30.33,WSW,257,2.0,5.0,33,0.00,,CLR,0.00,VWS V14.01,2013-04-27 18:48:00,
2013-04-27 14:53:00,66.2,35.5,30.33,SE,142,1.0,5.0,32,0.00,,CLR,0.00,VWS V14.01,2013-04-27 18:53:00,
2013-04-27 14:58:00,65.9,35.2,30.33,NNW,330,3.0,5.0,32,0.00,,CLR,0.00,VWS V14.01,2013-04-27 18:58:00,
2013-04-27 15:03:00,65.8,35.9,30.33,ENE,63,2.0,2.0,33,0.00,,CLR,0.00,VWS V14.01,2013-04-27 19:03:00,
2013-04-27 15:08:00,65.9,33.6,30.32,WSW,245,1.0,4.0,30,0.00,,CLR,0.00,VWS V14.01,2013-04-27 19:08:00,
2013-04-27 15:13:00,66.1,34.6,30.32,West,265,0.0,4.0,31,0.00,,CLR,0.00,VWS V14.01,2013-04-27 19:13:00,
2013-04-27 15:18:00,66.4,38.7,30.32,WNW,288,3.0,5.0,36,0.00,,CLR,0.00,VWS V14.01,2013-04-27 19:18:00,
2013-04-27 15:23:00,66.3,34.8,30.31,West,269,0.0,5.0,31,0.00,,CLR,0.00,VWS V14.01,2013-04-27 19:23:00,
2013-04-27 15:28:00,66.1,34.6,30.31,South,183,1.0,7.0,31,0.00,,CLR,0.00,VWS V14.01,2013-04-27 19:28:00,
2013-04-27 15:33:00,66.0,37.6,30.31,NW,318,3.0,4.0,35,0.00,,CLR,0.00,VWS V14.01,2013-04-27 19:33:00,
2013-04-27 15:39:00,66.2,34.7,30.31,East,99,1.0,6.0,31,0.00,,CLR,0.00,VWS V14.01,2013-04-27 19:39:00,
2013-04-27 15:44:00,66.4,34.9,30.31,NE,39,2.0,6.0,31,0.00,,CLR,0.00,VWS V14.01,2013-04-27 19:44:00,
2013-04-27 15:49:00,66.5,35.0,30.31,NNW,347,1.0,6.0,31,0.00,,CLR,0.00,VWS V14.01,2013-04-27 19:49:00,
2013-04-27 15:54:00,66.3,35.6,30.31,NE,35,6.0,6.0,32,0.00,,CLR,0.00,VWS V14.01,2013-04-27 19:54:00,
2013-04-27 15:59:00,66.6,38.8,30.30,NW,305,2.0,6.0,36,0.00,,CLR,0.00,VWS V14.01,2013-04-27 19:59:00,
2013-04-27 16:04:00,66.8,36.0,30.30,WSW,257,0.0,1.0,32,0.00,,CLR,0.00,VWS V14.01,2013-04-27 20:04:00,
2013-04-27 16:09:00,67.3,38.0,30.30,NW,305,1.0,3.0,34,0.00,,CLR,0.00,VWS V14.01,2013-04-27 20:09:00,
2013-04-27 16:14:00,67.2,36.4,30.30,WNW,302,3.0,5.0,32,0.00,,CLR,0.00,VWS V14.01,2013-04-27 20:14:00,
2013-04-27 16:19:00,66.8,35.2,30.30,ESE,116,0.0,5.0,31,0.00,,CLR,0.00,VWS V14.01,2013-04-27 20:19:00,
2013-04-27 16:25:00,66.7,35.9,30.29,NE,34,3.0,5.0,32,0.00,,CLR,0.00,VWS V14.01,2013-04-27 20:25:00,
2013-04-27 16:30:00,66.8,37.6,30.29,NE,35,2.0,5.0,34,0.00,,CLR,0.00,VWS V14.01,2013-04-27 20:30:00,
2013-04-27 16:36:00,66.6,36.6,30.29,NW,324,2.0,4.0,33,0.00,,FEW002,0.00,VWS V14.01,2013-04-27 20:36:00,
2013-04-27 16:41:00,66.5,35.0,30.29,NW,307,1.0,8.0,31,0.00,,FEW002,0.00,VWS V14.01,2013-04-27 20:41:00,
2013-04-27 16:46:00,66.6,36.6,30.29,North,356,4.0,8.0,33,0.00,,FEW002,0.00,VWS V14.01,2013-04-27 20:46:00,
2013-04-27 16:51:00,66.6,35.0,30.29,North,1,0.0,8.0,31,0.00,,FEW002,0.00,VWS V14.01,2013-04-27 20:51:00,
2013-04-27 16:57:00,66.7,36.7,30.29,NNE,13,3.0,8.0,33,0.00,,FEW002,0.00,VWS V14.01,2013-04-27 20:57:00,
2013-04-27 17:02:00,66.7,35.1,30.29,North,8,2.0,8.0,31,0.00,,FEW002,0.00,VWS V14.01,2013-04-27 21:02:00,
2013-04-27 17:07:00,66.7,37.5,30.29,NE,35,1.0,5.0,34,0.00,,FEW002,0.00,VWS V14.01,2013-04-27 21:07:00,
2013-04-27 17:12:00,66.8,39.0,30.29,SE,139,1.0,5.0,36,0.00,,FEW002,0.00,VWS V14.01,2013-04-27 21:12:00,
2013-04-27 17:17:00,66.3,37.1,30.29,SSW,197,2.0,5.0,34,0.00,,FEW002,0.00,VWS V14.01,2013-04-27 21:17:00,
2013-04-27 17:22:00,65.8,36.7,30.29,ESE,123,0.0,5.0,34,0.00,,FEW002,0.00,VWS V14.01,2013-04-27 21:22:00,
2013-04-27 17:27:00,65.7,38.7,30.29,West,263,1.0,5.0,37,0.00,,FEW002,0.00,VWS V14.01,2013-04-27 21:27:00,
2013-04-27 17:32:00,65.6,38.0,30.29,SSE,158,1.0,5.0,36,0.00,,CLR,0.00,VWS V14.01,2013-04-27 21:32:00,
2013-04-27 17:37:00,65.7,37.3,30.29,SE,136,1.0,6.0,35,0.00,,CLR,0.00,VWS V14.01,2013-04-27 21:37:00,
2013-04-27 17:42:00,65.6,37.2,30.28,South,170,1.0,6.0,35,0.00,,CLR,0.00,VWS V14.01,2013-04-27 21:42:00,
2013-04-27 17:48:00,65.6,37.2,30.28,SE,129,0.0,6.0,35,0.00,,CLR,0.00,VWS V14.01,2013-04-27 21:48:00,
2013-04-27 17:53:00,65.5,38.6,30.28,ENE,77,1.0,6.0,37,0.00,,CLR,0.00,VWS V14.01,2013-04-27 21:53:00,
2013-04-27 17:58:00,65.4,38.5,30.28,SE,145,0.0,6.0,37,0.00,,CLR,0.00,VWS V14.01,2013-04-27 21:58:00,
2013-04-27 18:03:00,65.2,38.3,30.28,East,89,1.0,1.0,37,0.00,,CLR,0.00,VWS V14.01,2013-04-27 22:03:00,
2013-04-27 18:08:00,65.1,36.8,30.28,ESE,118,1.0,5.0,35,0.00,,CLR,0.00,VWS V14.01,2013-04-27 22:08:00,
2013-04-27 18:13:00,65.0,38.1,30.28,SE,128,3.0,5.0,37,0.00,,CLR,0.00,VWS V14.01,2013-04-27 22:13:00,
2013-04-27 18:18:00,64.9,38.0,30.28,ESE,123,1.0,6.0,37,0.00,,CLR,0.00,VWS V14.01,2013-04-27 22:18:00,
2013-04-27 18:23:00,64.9,38.0,30.28,ESE,120,4.0,6.0,37,0.00,,CLR,0.00,VWS V14.01,2013-04-27 22:23:00,
2013-04-27 18:28:00,64.7,37.2,30.28,SSW,210,0.0,6.0,36,0.00,,CLR,0.00,VWS V14.01,2013-04-27 22:28:00,
2013-04-27 18:34:00,64.6,37.1,30.28,SW,235,1.0,3.0,36,0.00,,CLR,0.00,VWS V14.01,2013-04-27 22:34:00,
2013-04-27 18:39:00,64.4,37.6,30.28,SE,139,1.0,4.0,37,0.00,,CLR,0.00,VWS V14.01,2013-04-27 22:39:00,
2013-04-27 18:44:00,64.3,38.2,30.28,SE,141,1.0,5.0,38,0.00,,CLR,0.00,VWS V14.01,2013-04-27 22:44:00,
2013-04-27 18:49:00,64.1,37.3,30.28,ESE,108,4.0,5.0,37,0.00,,CLR,0.00,VWS V14.01,2013-04-27 22:49:00,
2013-04-27 18:54:00,64.0,37.2,30.28,SE,133,2.0,5.0,37,0.00,,CLR,0.00,VWS V14.01,2013-04-27 22:54:00,
2013-04-27 18:59:00,63.8,37.7,30.28,SE,131,1.0,5.0,38,0.00,,CLR,0.00,VWS V14.01,2013-04-27 22:59:00,
2013-04-27 19:04:00,63.7,37.0,30.27,SW,226,1.0,3.0,37,0.00,,CLR,0.00,VWS V14.01,2013-04-27 23:04:00,
2013-04-27 19:09:00,63.5,38.8,30.28,ESE,107,0.0,3.0,40,0.00,,CLR,0.00,VWS V14.01,2013-04-27 23:09:00,
2013-04-27 19:14:00,63.1,37.8,30.27,SE,139,1.0,3.0,39,0.00,,CLR,0.00,VWS V14.01,2013-04-27 23:14:00,
2013-04-27 19:20:00,62.9,38.2,30.27,SE,127,0.0,5.0,40,0.00,,CLR,0.00,VWS V14.01,2013-04-27 23:20:00,
2013-04-27 19:25:00,62.5,39.1,30.27,SE,129,0.0,5.0,42,0.00,,CLR,0.00,VWS V14.01,2013-04-27 23:25:00,
2013-04-27 19:30:00,61.9,38.0,30.27,SE,137,0.0,5.0,41,0.00,,CLR,0.00,VWS V14.01,2013-04-27 23:30:00,
2013-04-27 19:35:00,61.4,38.7,30.27,ESE,120,0.0,0.0,43,0.00,,CLR,0.00,VWS V14.01,2013-04-27 23:35:00,
2013-04-27 19:40:00,61.0,38.4,30.27,SE,125,1.0,1.0,43,0.00,,CLR,0.00,VWS V14.01,2013-04-27 23:40:00,
2013-04-27 19:45:00,60.7,38.7,30.27,ESE,121,0.0,2.0,44,0.00,,CLR,0.00,VWS V14.01,2013-04-27 23:45:00,
2013-04-27 19:50:00,60.0,39.7,30.27,ESE,121,0.0,2.0,47,0.00,,CLR,0.00,VWS V14.01,2013-04-27 23:50:00,
2013-04-27 19:55:00,59.1,38.9,30.27,NE,56,1.0,2.0,47,0.00,,CLR,0.00,VWS V14.01,2013-04-27 23:55:00,
2013-04-27 20:00:00,58.6,38.5,30.27,NE,55,1.0,2.0,47,0.00,,CLR,0.00,VWS V14.01,2013-04-28 00:00:00,
2013-04-27 20:06:00,58.3,38.2,30.27,NE,56,1.0,1.0,47,0.00,,CLR,0.00,VWS V14.01,2013-04-28 00:06:00,
2013-04-27 20:11:00,58.2,38.1,30.27,NE,54,1.0,1.0,47,0.00,,CLR,0.00,VWS V14.01,2013-04-28 00:11:00,
2013-04-27 20:16:00,57.9,37.8,30.27,NE,46,0.0,1.0,47,0.00,,CLR,0.00,VWS V14.01,2013-04-28 00:16:00,
2013-04-27 20:21:00,57.6,38.1,30.27,NE,46,1.0,1.0,48,0.00,,CLR,0.00,VWS V14.01,2013-04-28 00:21:00,
2013-04-27 20:26:00,57.2,37.7,30.27,NNE,13,1.0,2.0,48,0.00,,CLR,0.00,VWS V14.01,2013-04-28 00:26:00,
2013-04-27 20:31:00,56.9,37.4,30.27,NNE,13,1.0,2.0,48,0.00,,CLR,0.00,VWS V14.01,2013-04-28 00:31:00,
2013-04-27 20:36:00,56.5,37.6,30.27,North,11,0.0,2.0,49,0.00,,CLR,0.00,VWS V14.01,2013-04-28 00:36:00,
2013-04-27 20:41:00,56.3,37.4,30.27,NNE,12,0.0,2.0,49,0.00,,CLR,0.00,VWS V14.01,2013-04-28 00:41:00,
2013-04-27 20:46:00,56.2,37.3,30.27,NNE,12,0.0,2.0,49,0.00,,CLR,0.00,VWS V14.01,2013-04-28 00:46:00,
2013-04-27 20:51:00,56.1,37.7,30.27,North,11,1.0,2.0,50,0.00,,CLR,0.00,VWS V14.01,2013-04-28 00:51:00,
2013-04-27 20:57:00,55.9,37.5,30.27,NNE,12,0.0,2.0,50,0.00,,CLR,0.00,VWS V14.01,2013-04-28 00:57:00,
2013-04-27 21:02:00,55.6,37.8,30.28,NNE,12,1.0,2.0,51,0.00,,CLR,0.00,VWS V14.01,2013-04-28 01:02:00,
2013-04-27 21:07:00,55.4,37.6,30.28,NNE,12,2.0,2.0,51,0.00,,CLR,0.00,VWS V14.01,2013-04-28 01:07:00,
2013-04-27 21:12:00,55.3,37.5,30.28,North,11,1.0,2.0,51,0.00,,CLR,0.00,VWS V14.01,2013-04-28 01:12:00,
2013-04-27 21:17:00,55.3,37.5,30.28,NNE,25,0.0,2.0,51,0.00,,CLR,0.00,VWS V14.01,2013-04-28 01:17:00,
2013-04-27 21:22:00,53.5,40.0,30.28,NW,307,2.0,2.0,60,0.00,,CLR,0.00,VWS V14.01,2013-04-28 01:22:00,
2013-04-27 21:27:00,51.9,39.3,30.28,North,354,0.0,2.0,62,0.00,,CLR,0.00,VWS V14.01,2013-04-28 01:27:00,
2013-04-27 21:32:00,52.0,38.1,30.28,North,354,1.0,2.0,59,0.00,,CLR,0.00,VWS V14.01,2013-04-28 01:32:00,
2013-04-27 21:37:00,52.7,37.5,30.28,North,354,0.0,1.0,56,0.00,,CLR,0.00,VWS V14.01,2013-04-28 01:37:00,
2013-04-27 21:43:00,53.5,37.3,30.28,North,355,0.0,1.0,54,0.00,,CLR,0.00,VWS V14.01,2013-04-28 01:43:00,
2013-04-27 21:48:00,53.5,37.8,30.28,North,356,0.0,1.0,55,0.00,,CLR,0.00,VWS V14.01,2013-04-28 01:48:00,
2013-04-27 21:53:00,53.4,37.2,30.28,North,355,0.0,1.0,54,0.00,,CLR,0.00,VWS V14.01,2013-04-28 01:53:00,
2013-04-27 21:58:00,53.3,37.6,30.27,North,3,0.0,1.0,55,0.00,,CLR,0.00,VWS V14.01,2013-04-28 01:58:00,
2013-04-27 22:03:00,53.3,37.1,30.27,North,1,0.0,0.0,54,0.00,,CLR,0.00,VWS V14.01,2013-04-28 02:03:00,
2013-04-27 22:08:00,53.7,37.0,30.27,NNE,12,0.0,0.0,53,0.00,,CLR,0.00,VWS V14.01,2013-04-28 02:08:00,
2013-04-27 22:13:00,53.8,37.1,30.27,North,1,2.0,3.0,53,0.00,,CLR,0.00,VWS V14.01,2013-04-28 02:13:00,
2013-04-27 22:18:00,53.6,38.3,30.27,North,1,0.0,3.0,56,0.00,,CLR,0.00,VWS V14.01,2013-04-28 02:18:00,
2013-04-27 22:23:00,51.6,39.0,30.27,SW,217,0.0,3.0,62,0.00,,CLR,0.00,VWS V14.01,2013-04-28 02:23:00,
2013-04-27 22:29:00,50.1,39.2,30.27,NNW,345,0.0,3.0,66,0.00,,CLR,0.00,VWS V14.01,2013-04-28 02:29:00,
2013-04-27 22:34:00,49.6,38.7,30.27,NNW,343,0.0,0.0,66,0.00,,CLR,0.00,VWS V14.01,2013-04-28 02:34:00,
2013-04-27 22:39:00,50.3,37.4,30.27,NNW,342,0.0,0.0,61,0.00,,CLR,0.00,VWS V14.01,2013-04-28 02:39:00,
2013-04-27 22:44:00,51.2,37.0,30.27,NNW,343,0.0,0.0,58,0.00,,CLR,0.00,VWS V14.01,2013-04-28 02:44:00,
2013-04-27 22:49:00,51.5,37.2,30.27,NNW,343,0.0,0.0,58,0.00,,CLR,0.00,VWS V14.01,2013-04-28 02:49:00,
2013-04-27 22:54:00,51.3,37.5,30.27,NNW,345,0.0,0.0,59,0.00,,CLR,0.00,VWS V14.01,2013-04-28 02:54:00,
2013-04-27 22:59:00,51.4,36.2,30.27,NNW,342,0.0,0.0,56,0.00,,CLR,0.00,VWS V14.01,2013-04-28 02:59:00,
2013-04-27 23:04:00,51.9,37.6,30.27,NNW,340,0.0,0.0,58,0.00,,CLR,0.00,VWS V14.01,2013-04-28 03:04:00,
2013-04-27 23:09:00,50.9,38.4,30.27,NNW,343,0.0,0.0,62,0.00,,CLR,0.00,VWS V14.01,2013-04-28 03:09:00,
2013-04-27 23:14:00,50.0,37.1,30.27,NNW,343,0.0,0.0,61,0.00,,CLR,0.00,VWS V14.01,2013-04-28 03:14:00,
2013-04-27 23:20:00,50.2,37.7,30.27,NNW,343,0.0,0.0,62,0.00,,CLR,0.00,VWS V14.01,2013-04-28 03:20:00,
2013-04-27 23:25:00,49.8,37.7,30.27,WSW,258,0.0,0.0,63,0.00,,CLR,0.00,VWS V14.01,2013-04-28 03:25:00,
2013-04-27 23:30:00,49.5,37.4,30.27,West,270,0.0,0.0,63,0.00,,CLR,0.00,VWS V14.01,2013-04-28 03:30:00,
2013-04-27 23:35:00,50.0,37.5,30.27,NNW,334,0.0,0.0,62,0.00,,CLR,0.00,VWS V14.01,2013-04-28 03:35:00,
2013-04-27 23:40:00,49.8,37.3,30.27,ENE,61,0.0,0.0,62,0.00,,CLR,0.00,VWS V14.01,2013-04-28 03:40:00,
2013-04-27 23:45:00,49.7,37.6,30.27,NE,47,0.0,0.0,63,0.00,,CLR,0.00,VWS V14.01,2013-04-28 03:45:00,
2013-04-27 23:50:00,49.0,38.2,30.27,NE,47,0.0,0.0,66,0.00,,CLR,0.00,VWS V14.01,2013-04-28 03:50:00,
2013-04-27 23:55:00,47.8,38.5,30.27,NE,47,0.0,0.0,70,0.00,,CLR,0.00,VWS V14.01,2013-04-28 03:55:00,